| time (UTC) | temp C | wind direction | speed KPH | gust KPH | rain 1hr cm | rain 24hr cm | rain mn cm | humidity % | barometer mb |
| 20260902235336 | 23 | 266 | 0.0 | 6.4 | 0.00 | 0.00 | 0.00 | 37 | 1014.5 |
| 20260902235123 | 23 | 269 | 0.0 | 3.2 | 0.00 | 0.00 | 0.00 | 36 | 1014.4 |
| 20260902234917 | 23 | 269 | 0.0 | 0.0 | 0.00 | 0.00 | 0.00 | 37 | 1014.5 |
| 20260902234712 | 23 | 269 | 0.0 | 6.4 | 0.00 | 0.00 | 0.00 | 36 | 1014.5 |
| 20260902234503 | 23 | 265 | 0.0 | 6.4 | 0.00 | 0.00 | 0.00 | 35 | 1014.4 |
| 20260902234256 | 23 | 265 | 0.0 | 6.4 | 0.00 | 0.00 | 0.00 | 35 | 1014.5 |
| 20260902233903 | 23 | 180 | 0.0 | 4.8 | 0.00 | 0.00 | 0.00 | 36 | 1014.4 |
| 20260902233515 | 24 | 207 | 0.0 | 3.2 | 0.00 | 0.00 | 0.00 | 36 | 1014.4 |
| 20260902233126 | 24 | 207 | 0.0 | 9.7 | 0.00 | 0.00 | 0.00 | 36 | 1014.5 |
| 20260902232924 | 24 | 215 | 0.0 | 9.7 | 0.00 | 0.00 | 0.00 | 35 | 1014.6 |
| 20260902232719 | 24 | 240 | 0.0 | 9.7 | 0.00 | 0.00 | 0.00 | 35 | 1014.6 |
| 20260902232331 | 23 | 237 | 1.6 | 9.7 | 0.00 | 0.00 | 0.00 | 35 | 1014.6 |
| 20260902231939 | 23 | 217 | 1.6 | 9.7 | 0.00 | 0.00 | 0.00 | 36 | 1014.5 |
| 20260902231729 | 23 | 237 | 1.6 | 9.7 | 0.00 | 0.00 | 0.00 | 34 | 1014.6 |
| 20260902231518 | 24 | 171 | 1.6 | 9.7 | 0.00 | 0.00 | 0.00 | 35 | 1014.5 |
| 20260902231316 | 24 | 209 | 1.6 | 9.7 | 0.00 | 0.00 | 0.00 | 34 | 1014.6 |
| 20260902231109 | 24 | 211 | 1.6 | 9.7 | 0.00 | 0.00 | 0.00 | 34 | 1014.6 |
| 20260902230856 | 24 | 209 | 1.6 | 9.7 | 0.00 | 0.00 | 0.00 | 35 | 1014.6 |
| 20260902230644 | 24 | 205 | 1.6 | 9.7 | 0.00 | 0.00 | 0.00 | 33 | 1014.6 |
| 20260902230441 | 24 | 203 | 1.6 | 9.7 | 0.00 | 0.00 | 0.00 | 36 | 1014.6 |
| 20260902230239 | 24 | 156 | 0.0 | 8.0 | 0.00 | 0.00 | 0.00 | 36 | 1014.7 |
| 20260902230034 | 24 | 209 | 0.0 | 4.8 | 0.00 | 0.00 | 0.00 | 35 | 1014.6 |
| 20260902225644 | 24 | 208 | 0.0 | 4.8 | 0.00 | 0.00 | 0.00 | 35 | 1014.6 |
| 20260902225436 | 23 | 336 | 0.0 | 4.8 | 0.00 | 0.00 | 0.00 | 36 | 1014.6 |
| 20260902225232 | 23 | 87 | 0.0 | 4.8 | 0.00 | 0.00 | 0.00 | 36 | 1014.6 |
| 20260902225027 | 23 | 199 | 0.0 | 4.8 | 0.00 | 0.00 | 0.00 | 38 | 1014.7 |
| 20260902224637 | 23 | 198 | 1.6 | 6.4 | 0.00 | 0.00 | 0.00 | 37 | 1014.7 |
| 20260902224432 | 23 | 237 | 0.0 | 6.4 | 0.00 | 0.00 | 0.00 | 36 | 1014.7 |
| 20260902224225 | 23 | 237 | 0.0 | 6.4 | 0.00 | 0.00 | 0.00 | 36 | 1014.8 |
| 20260902223837 | 23 | 263 | 0.0 | 11.3 | 0.00 | 0.00 | 0.00 | 36 | 1014.8 |
| 20260902223633 | 23 | 213 | 1.6 | 11.3 | 0.00 | 0.00 | 0.00 | 37 | 1014.8 |
| 20260902223243 | 23 | 271 | 1.6 | 11.3 | 0.00 | 0.00 | 0.00 | 38 | 1014.8 |
| 20260902223034 | 23 | 275 | 1.6 | 11.3 | 0.00 | 0.00 | 0.00 | 35 | 1014.9 |
| 20260902222828 | 23 | 275 | 1.6 | 11.3 | 0.00 | 0.00 | 0.00 | 35 | 1014.9 |
| 20260902222617 | 23 | 304 | 1.6 | 11.3 | 0.00 | 0.00 | 0.00 | 36 | 1014.9 |
| 20260902222226 | 23 | 279 | 1.6 | 11.3 | 0.00 | 0.00 | 0.00 | 38 | 1014.9 |
| 20260902222014 | 23 | 266 | 1.6 | 11.3 | 0.00 | 0.00 | 0.00 | 37 | 1015.0 |
| 20260902221802 | 23 | 272 | 1.6 | 9.7 | 0.00 | 0.00 | 0.00 | 43 | 1014.9 |
| 20260902221600 | 23 | 273 | 1.6 | 9.7 | 0.00 | 0.00 | 0.00 | 37 | 1015.0 |
| 20260902221207 | 23 | 204 | 1.6 | 9.7 | 0.00 | 0.00 | 0.00 | 41 | 1015.0 |
| 20260902220818 | 23 | 158 | 1.6 | 6.4 | 0.00 | 0.00 | 0.00 | 42 | 1014.9 |
| 20260902220614 | 23 | 196 | 0.0 | 6.4 | 0.00 | 0.00 | 0.00 | 42 | 1014.9 |
| 20260902220226 | 22 | 172 | 1.6 | 6.4 | 0.00 | 0.00 | 0.00 | 44 | 1015.0 |
| 20260902220020 | 22 | 186 | 1.6 | 1.6 | 0.00 | 0.00 | 0.00 | 39 | 1015.1 |
| 20260902215812 | 22 | 185 | 1.6 | 9.7 | 0.00 | 0.00 | 0.00 | 41 | 1015.1 |
| 20260902215603 | 22 | 221 | 1.6 | 9.7 | 0.00 | 0.00 | 0.00 | 43 | 1015.1 |
| 20260902215359 | 22 | 242 | 1.6 | 9.7 | 0.00 | 0.00 | 0.00 | 43 | 1015.1 |
| 20260902215149 | 22 | 174 | 1.6 | 9.7 | 0.00 | 0.00 | 0.00 | 44 | 1015.3 |
| 20260902214939 | 22 | 148 | 0.0 | 9.7 | 0.00 | 0.00 | 0.00 | 44 | 1015.2 |
| 20260902214729 | 22 | 148 | 0.0 | 9.7 | 0.00 | 0.00 | 0.00 | 45 | 1015.3 |
| 20260902214520 | 22 | 149 | 1.6 | 9.7 | 0.00 | 0.00 | 0.00 | 43 | 1015.4 |
| 20260902214315 | 22 | 163 | 1.6 | 9.7 | 0.00 | 0.00 | 0.00 | 44 | 1015.4 |
| 20260902213926 | 22 | 205 | 1.6 | 9.7 | 0.00 | 0.00 | 0.00 | 42 | 1015.4 |
| 20260902213720 | 22 | 203 | 1.6 | 9.7 | 0.00 | 0.00 | 0.00 | 40 | 1015.4 |
| 20260902213508 | 23 | 207 | 1.6 | 9.7 | 0.00 | 0.00 | 0.00 | 38 | 1015.4 |
| 20260902213256 | 23 | 213 | 1.6 | 9.7 | 0.00 | 0.00 | 0.00 | 43 | 1015.4 |
| 20260902213047 | 23 | 290 | 1.6 | 9.7 | 0.00 | 0.00 | 0.00 | 38 | 1015.5 |
| 20260902212835 | 23 | 290 | 1.6 | 12.9 | 0.00 | 0.00 | 0.00 | 43 | 1015.4 |
| 20260902212627 | 23 | 295 | 1.6 | 12.9 | 0.00 | 0.00 | 0.00 | 38 | 1015.5 |
| 20260902212415 | 23 | 273 | 0.0 | 12.9 | 0.00 | 0.00 | 0.00 | 38 | 1015.4 |
| 20260902212019 | 23 | 244 | 0.0 | 12.9 | 0.00 | 0.00 | 0.00 | 39 | 1015.5 |
| 20260902211815 | 23 | 242 | 1.6 | 12.9 | 0.00 | 0.00 | 0.00 | 38 | 1015.5 |
| 20260902211424 | 23 | 241 | 3.2 | 12.9 | 0.00 | 0.00 | 0.00 | 37 | 1015.5 |
| 20260902211214 | 23 | 311 | 3.2 | 12.9 | 0.00 | 0.00 | 0.00 | 37 | 1015.6 |
| 20260902210817 | 23 | 248 | 1.6 | 9.7 | 0.00 | 0.00 | 0.00 | 39 | 1015.7 |
| 20260902210608 | 23 | 165 | 0.0 | 8.0 | 0.00 | 0.00 | 0.00 | 40 | 1015.7 |
| 20260902210402 | 23 | 238 | 1.6 | 8.0 | 0.00 | 0.00 | 0.00 | 39 | 1015.6 |
| 20260902210151 | 23 | 220 | 1.6 | 8.0 | 0.00 | 0.00 | 0.00 | 40 | 1015.6 |
| 20260902205940 | 23 | 196 | 0.0 | 8.0 | 0.00 | 0.00 | 0.00 | 39 | 1015.7 |
| 20260902205737 | 23 | 151 | 0.0 | 8.0 | 0.00 | 0.00 | 0.00 | 39 | 1015.7 |
| 20260902205527 | 23 | 152 | 1.6 | 11.3 | 0.00 | 0.00 | 0.00 | 40 | 1015.6 |
| 20260902205316 | 23 | 230 | 1.6 | 11.3 | 0.00 | 0.00 | 0.00 | 40 | 1015.6 |
| 20260902205105 | 23 | 175 | 1.6 | 11.3 | 0.00 | 0.00 | 0.00 | 39 | 1015.6 |
| 20260902204901 | 23 | 157 | 1.6 | 11.3 | 0.00 | 0.00 | 0.00 | 39 | 1015.6 |
| 20260902204659 | 23 | 193 | 1.6 | 11.3 | 0.00 | 0.00 | 0.00 | 39 | 1015.6 |
| 20260902204449 | 23 | 229 | 1.6 | 11.3 | 0.00 | 0.00 | 0.00 | 40 | 1015.7 |
| 20260902204238 | 22 | 249 | 1.6 | 11.3 | 0.00 | 0.00 | 0.00 | 39 | 1015.6 |
| 20260902204031 | 22 | 198 | 1.6 | 11.3 | 0.00 | 0.00 | 0.00 | 40 | 1015.6 |
| 20260902203828 | 22 | 57 | 1.6 | 11.3 | 0.00 | 0.00 | 0.00 | 39 | 1015.6 |
| 20260902203255 | 22 | 265 | 1.6 | 9.7 | 0.00 | 0.00 | 0.00 | 40 | 1015.5 |
| 20260902203045 | 22 | 227 | 1.6 | 9.7 | 0.00 | 0.00 | 0.00 | 40 | 1015.6 |
| 20260902202651 | 22 | 195 | 0.0 | 8.0 | 0.00 | 0.00 | 0.00 | 42 | 1015.6 |
| 20260902202437 | 22 | 256 | 1.6 | 8.0 | 0.00 | 0.00 | 0.00 | 41 | 1015.6 |
| 20260902202231 | 22 | 259 | 1.6 | 8.0 | 0.00 | 0.00 | 0.00 | 41 | 1015.6 |
| 20260902202023 | 22 | 285 | 1.6 | 8.0 | 0.00 | 0.00 | 0.00 | 41 | 1015.6 |
| 20260902201629 | 22 | 318 | 3.2 | 8.0 | 0.00 | 0.00 | 0.00 | 41 | 1015.6 |
| 20260902201425 | 22 | 288 | 3.2 | 8.0 | 0.00 | 0.00 | 0.00 | 42 | 1015.7 |
| 20260902201216 | 22 | 309 | 3.2 | 8.0 | 0.00 | 0.00 | 0.00 | 44 | 1015.6 |
| 20260902201010 | 22 | 71 | 1.6 | 8.0 | 0.00 | 0.00 | 0.00 | 41 | 1015.7 |
| 20260902200804 | 22 | 164 | 1.6 | 6.4 | 0.00 | 0.00 | 0.00 | 42 | 1015.7 |
| 20260902200600 | 22 | 163 | 1.6 | 8.0 | 0.00 | 0.00 | 0.00 | 43 | 1015.6 |
| 20260902200346 | 22 | 220 | 1.6 | 8.0 | 0.00 | 0.00 | 0.00 | 43 | 1015.7 |
| 20260902200141 | 22 | 169 | 1.6 | 8.0 | 0.00 | 0.00 | 0.00 | 42 | 1015.6 |
| 20260902195746 | 22 | 275 | 1.6 | 8.0 | 0.00 | 0.00 | 0.00 | 41 | 1015.7 |
| 20260902195533 | 22 | 275 | 1.6 | 9.7 | 0.00 | 0.00 | 0.00 | 42 | 1015.7 |
| 20260902195321 | 22 | 286 | 1.6 | 9.7 | 0.00 | 0.00 | 0.00 | 42 | 1015.7 |
| 20260902195111 | 21 | 286 | 1.6 | 9.7 | 0.00 | 0.00 | 0.00 | 42 | 1015.7 |
| 20260902194904 | 21 | 283 | 1.6 | 9.7 | 0.00 | 0.00 | 0.00 | 42 | 1015.9 |
| 20260902194509 | 21 | 271 | 1.6 | 11.3 | 0.00 | 0.00 | 0.00 | 43 | 1015.8 |
| 20260902194306 | 21 | 305 | 1.6 | 11.3 | 0.00 | 0.00 | 0.00 | 43 | 1015.8 |
| 20260902194100 | 21 | 198 | 1.6 | 11.3 | 0.00 | 0.00 | 0.00 | 43 | 1015.8 |
| 20260902193848 | 21 | 229 | 1.6 | 11.3 | 0.00 | 0.00 | 0.00 | 43 | 1015.8 |
| 20260902193637 | 21 | 250 | 1.6 | 11.3 | 0.00 | 0.00 | 0.00 | 44 | 1015.7 |
| 20260902193248 | 21 | 293 | 1.6 | 11.3 | 0.00 | 0.00 | 0.00 | 42 | 1015.8 |
| 20260902193037 | 21 | 277 | 3.2 | 11.3 | 0.00 | 0.00 | 0.00 | 43 | 1015.8 |
| 20260902192828 | 21 | 217 | 1.6 | 11.3 | 0.00 | 0.00 | 0.00 | 43 | 1015.8 |
| 20260902192436 | 21 | 167 | 1.6 | 9.7 | 0.00 | 0.00 | 0.00 | 44 | 1015.8 |
| 20260902192225 | 21 | 217 | 1.6 | 9.7 | 0.00 | 0.00 | 0.00 | 43 | 1015.8 |
| 20260902192016 | 21 | 184 | 1.6 | 9.7 | 0.00 | 0.00 | 0.00 | 43 | 1015.8 |
| 20260902191808 | 21 | 203 | 1.6 | 9.7 | 0.00 | 0.00 | 0.00 | 43 | 1015.8 |
| 20260902191558 | 21 | 220 | 1.6 | 9.7 | 0.00 | 0.00 | 0.00 | 43 | 1015.9 |
| 20260902191347 | 21 | 317 | 1.6 | 9.7 | 0.00 | 0.00 | 0.00 | 42 | 1015.9 |
| 20260902191141 | 21 | 285 | 1.6 | 9.7 | 0.00 | 0.00 | 0.00 | 42 | 1015.9 |
| 20260902190928 | 21 | 47 | 1.6 | 8.0 | 0.00 | 0.00 | 0.00 | 41 | 1015.8 |
| 20260902190720 | 21 | 284 | 1.6 | 8.0 | 0.00 | 0.00 | 0.00 | 42 | 1015.8 |
| 20260902190515 | 21 | 294 | 1.6 | 8.0 | 0.00 | 0.00 | 0.00 | 43 | 1015.9 |
| 20260902190304 | 21 | 277 | 1.6 | 8.0 | 0.00 | 0.00 | 0.00 | 41 | 1015.8 |
| 20260902190054 | 21 | 286 | 0.0 | 8.0 | 0.00 | 0.00 | 0.00 | 42 | 1015.8 |
| 20260902185849 | 21 | 287 | 1.6 | 8.0 | 0.00 | 0.00 | 0.00 | 43 | 1015.8 |
| 20260902185640 | 21 | 288 | 1.6 | 8.0 | 0.00 | 0.00 | 0.00 | 44 | 1015.8 |
| 20260902185429 | 21 | 288 | 1.6 | 8.0 | 0.00 | 0.00 | 0.00 | 43 | 1015.8 |
| 20260902185221 | 21 | 222 | 0.0 | 8.0 | 0.00 | 0.00 | 0.00 | 44 | 1015.8 |
| 20260902185010 | 20 | 222 | 0.0 | 8.0 | 0.00 | 0.00 | 0.00 | 44 | 1015.9 |
| 20260902184800 | 20 | 198 | 0.0 | 3.2 | 0.00 | 0.00 | 0.00 | 45 | 1015.8 |
| 20260902184558 | 20 | 198 | 0.0 | 0.0 | 0.00 | 0.00 | 0.00 | 44 | 1015.9 |
| 20260902184208 | 20 | 202 | 0.0 | 9.7 | 0.00 | 0.00 | 0.00 | 45 | 1016.0 |
| 20260902183959 | 20 | 204 | 1.6 | 9.7 | 0.00 | 0.00 | 0.00 | 45 | 1016.0 |
| 20260902183746 | 20 | 204 | 1.6 | 9.7 | 0.00 | 0.00 | 0.00 | 45 | 1016.0 |
| 20260902183354 | 19 | 80 | 1.6 | 9.7 | 0.00 | 0.00 | 0.00 | 46 | 1015.9 |
| 20260902183145 | 19 | 211 | 3.2 | 9.7 | 0.00 | 0.00 | 0.00 | 46 | 1015.9 |
| 20260902182933 | 19 | 207 | 1.6 | 9.7 | 0.00 | 0.00 | 0.00 | 46 | 1015.9 |
| 20260902182726 | 19 | 221 | 1.6 | 9.7 | 0.00 | 0.00 | 0.00 | 46 | 1015.8 |
| 20260902182518 | 18 | 209 | 0.0 | 8.0 | 0.00 | 0.00 | 0.00 | 47 | 1015.9 |
| 20260902182308 | 18 | 217 | 0.0 | 6.4 | 0.00 | 0.00 | 0.00 | 47 | 1015.8 |
| 20260902182100 | 18 | 194 | 0.0 | 1.6 | 0.00 | 0.00 | 0.00 | 47 | 1015.9 |
| 20260902181853 | 18 | 194 | 0.0 | 0.0 | 0.00 | 0.00 | 0.00 | 47 | 1015.9 |
| 20260902181641 | 18 | 194 | 1.6 | 11.3 | 0.00 | 0.00 | 0.00 | 47 | 1015.9 |
| 20260902181437 | 18 | 194 | 0.0 | 6.4 | 0.00 | 0.00 | 0.00 | 48 | 1016.0 |
| 20260902180903 | 18 | 175 | 3.2 | 6.4 | 0.00 | 0.00 | 0.00 | 48 | 1016.0 |
| 20260902180650 | 18 | 219 | 3.2 | 6.4 | 0.00 | 0.00 | 0.00 | 48 | 1016.0 |
| 20260902180439 | 18 | 336 | 3.2 | 11.3 | 0.00 | 0.00 | 0.00 | 48 | 1016.0 |
| 20260902180235 | 18 | 335 | 3.2 | 11.3 | 0.00 | 0.00 | 0.00 | 48 | 1016.1 |
| 20260902180025 | 18 | 292 | 1.6 | 11.3 | 0.00 | 0.00 | 0.00 | 49 | 1016.1 |
| 20260902175628 | 18 | 298 | 1.6 | 11.3 | 0.00 | 0.00 | 0.00 | 50 | 1016.1 |
| 20260902175049 | 17 | 216 | 1.6 | 11.3 | 0.00 | 0.00 | 0.00 | 50 | 1016.1 |
| 20260902174846 | 17 | 216 | 3.2 | 11.3 | 0.00 | 0.00 | 0.00 | 50 | 1016.1 |
| 20260902174458 | 17 | 216 | 3.2 | 11.3 | 0.00 | 0.00 | 0.00 | 50 | 1016.1 |
| 20260902174253 | 17 | 216 | 1.6 | 11.3 | 0.00 | 0.00 | 0.00 | 51 | 1016.2 |
| 20260902174044 | 17 | 215 | 1.6 | 11.3 | 0.00 | 0.00 | 0.00 | 51 | 1016.2 |
| 20260902173833 | 17 | 215 | 1.6 | 11.3 | 0.00 | 0.00 | 0.00 | 51 | 1016.1 |
| 20260902173620 | 17 | 247 | 0.0 | 8.0 | 0.00 | 0.00 | 0.00 | 51 | 1016.1 |
| 20260902173415 | 17 | 217 | 1.6 | 8.0 | 0.00 | 0.00 | 0.00 | 52 | 1016.1 |
| 20260902173021 | 17 | 218 | 1.6 | 8.0 | 0.00 | 0.00 | 0.00 | 52 | 1016.1 |
| 20260902172624 | 16 | 219 | 1.6 | 8.0 | 0.00 | 0.00 | 0.00 | 52 | 1016.1 |
| 20260902172413 | 16 | 219 | 0.0 | 8.0 | 0.00 | 0.00 | 0.00 | 53 | 1016.0 |
| 20260902172211 | 16 | 219 | 0.0 | 4.8 | 0.00 | 0.00 | 0.00 | 52 | 1016.0 |
| 20260902172000 | 16 | 218 | 0.0 | 3.2 | 0.00 | 0.00 | 0.00 | 54 | 1016.0 |
| 20260902171754 | 16 | 218 | 0.0 | 6.4 | 0.00 | 0.00 | 0.00 | 54 | 1016.0 |
| 20260902171549 | 16 | 216 | 0.0 | 1.6 | 0.00 | 0.00 | 0.00 | 54 | 1016.0 |
| 20260902171338 | 16 | 216 | 1.6 | 9.7 | 0.00 | 0.00 | 0.00 | 54 | 1016.0 |
| 20260902171126 | 16 | 216 | 1.6 | 9.7 | 0.00 | 0.00 | 0.00 | 55 | 1016.0 |
| 20260902170923 | 16 | 216 | 0.0 | 9.7 | 0.00 | 0.00 | 0.00 | 55 | 1016.0 |
| 20260902170718 | 15 | 216 | 1.6 | 9.7 | 0.00 | 0.00 | 0.00 | 56 | 1015.9 |
| 20260902170512 | 15 | 216 | 1.6 | 9.7 | 0.00 | 0.00 | 0.00 | 56 | 1015.9 |
| 20260902170259 | 15 | 217 | 1.6 | 9.7 | 0.00 | 0.00 | 0.00 | 56 | 1015.9 |
| 20260902170051 | 15 | 216 | 1.6 | 9.7 | 0.00 | 0.00 | 0.00 | 57 | 1015.9 |
| 20260902165838 | 15 | 216 | 1.6 | 9.7 | 0.00 | 0.00 | 0.00 | 57 | 1015.9 |
| 20260902165627 | 15 | 216 | 1.6 | 9.7 | 0.00 | 0.00 | 0.00 | 58 | 1015.9 |
| 20260902165424 | 15 | 227 | 1.6 | 8.0 | 0.00 | 0.00 | 0.00 | 59 | 1015.9 |
| 20260902165213 | 14 | 242 | 0.0 | 4.8 | 0.00 | 0.00 | 0.00 | 59 | 1015.9 |
| 20260902165011 | 14 | 242 | 0.0 | 4.8 | 0.00 | 0.00 | 0.00 | 60 | 1015.9 |
| 20260902164806 | 14 | 242 | 0.0 | 4.8 | 0.00 | 0.00 | 0.00 | 60 | 1015.8 |
| 20260902164601 | 13 | 242 | 0.0 | 4.8 | 0.00 | 0.00 | 0.00 | 61 | 1015.9 |
| 20260902164204 | 13 | 217 | 0.0 | 3.2 | 0.00 | 0.00 | 0.00 | 61 | 1015.8 |
| 20260902163956 | 13 | 218 | 0.0 | 0.0 | 0.00 | 0.00 | 0.00 | 62 | 1015.8 |
| 20260902163744 | 13 | 218 | 0.0 | 8.0 | 0.00 | 0.00 | 0.00 | 62 | 1015.9 |
| 20260902163541 | 13 | 220 | 0.0 | 8.0 | 0.00 | 0.00 | 0.00 | 63 | 1015.9 |
| 20260902163329 | 13 | 220 | 0.0 | 8.0 | 0.00 | 0.00 | 0.00 | 64 | 1015.9 |
| 20260902163119 | 12 | 272 | 0.0 | 0.0 | 0.00 | 0.00 | 0.00 | 65 | 1016.0 |
| 20260902162914 | 12 | 272 | 0.0 | 0.0 | 0.00 | 0.00 | 0.00 | 65 | 1015.9 |
| 20260902162701 | 12 | 272 | 0.0 | 3.2 | 0.00 | 0.00 | 0.00 | 65 | 1016.0 |
| 20260902162455 | 12 | 272 | 0.0 | 1.6 | 0.00 | 0.00 | 0.00 | 66 | 1016.0 |
| 20260902162248 | 12 | 272 | 0.0 | 0.0 | 0.00 | 0.00 | 0.00 | 67 | 1016.0 |
| 20260902162042 | 12 | 272 | 0.0 | 0.0 | 0.00 | 0.00 | 0.00 | 67 | 1016.0 |
| 20260902161834 | 11 | 272 | 0.0 | 3.2 | 0.00 | 0.00 | 0.00 | 68 | 1016.0 |
| 20260902161302 | 11 | 272 | 0.0 | 0.0 | 0.00 | 0.00 | 0.00 | 69 | 1016.0 |
| 20260902161056 | 11 | 272 | 0.0 | 3.2 | 0.00 | 0.00 | 0.00 | 70 | 1016.0 |
| 20260902160705 | 11 | 272 | 0.0 | 3.2 | 0.00 | 0.00 | 0.00 | 71 | 1016.1 |
| 20260902160456 | 11 | 272 | 0.0 | 3.2 | 0.00 | 0.00 | 0.00 | 71 | 1016.1 |
| 20260902160107 | 10 | 272 | 0.0 | 3.2 | 0.00 | 0.00 | 0.00 | 72 | 1016.0 |
| 20260902155857 | 10 | 272 | 0.0 | 0.0 | 0.00 | 0.00 | 0.00 | 72 | 1016.0 |
| 20260902155650 | 10 | 272 | 0.0 | 3.2 | 0.00 | 0.00 | 0.00 | 73 | 1016.1 |
| 20260902155445 | 10 | 272 | 0.0 | 1.6 | 0.00 | 0.00 | 0.00 | 73 | 1016.0 |
| 20260902155244 | 10 | 272 | 0.0 | 1.6 | 0.00 | 0.00 | 0.00 | 74 | 1016.0 |
| 20260902155034 | 10 | 272 | 0.0 | 0.0 | 0.00 | 0.00 | 0.00 | 74 | 1016.0 |
| 20260902154821 | 10 | 272 | 0.0 | 0.0 | 0.00 | 0.00 | 0.00 | 74 | 1016.1 |
| 20260902154429 | 10 | 272 | 0.0 | 0.0 | 0.00 | 0.00 | 0.00 | 74 | 1016.0 |
| 20260902154226 | 9 | 272 | 0.0 | 0.0 | 0.00 | 0.00 | 0.00 | 74 | 1016.1 |
| 20260902154012 | 9 | 272 | 0.0 | 3.2 | 0.00 | 0.00 | 0.00 | 74 | 1016.1 |
| 20260902153806 | 9 | 273 | 0.0 | 0.0 | 0.00 | 0.00 | 0.00 | 74 | 1016.1 |
| 20260902153555 | 9 | 273 | 0.0 | 0.0 | 0.00 | 0.00 | 0.00 | 74 | 1016.1 |
| 20260902153350 | 9 | 272 | 0.0 | 0.0 | 0.00 | 0.00 | 0.00 | 74 | 1016.0 |
| 20260902152957 | 8 | 272 | 0.0 | 0.0 | 0.00 | 0.00 | 0.00 | 73 | 1016.0 |
| 20260902152752 | 8 | 272 | 0.0 | 0.0 | 0.00 | 0.00 | 0.00 | 73 | 1016.0 |
| 20260902152540 | 8 | 273 | 0.0 | 0.0 | 0.00 | 0.00 | 0.00 | 73 | 1016.0 |
| 20260902152333 | 8 | 273 | 0.0 | 0.0 | 0.00 | 0.00 | 0.00 | 73 | 1016.0 |
| 20260902152129 | 8 | 273 | 0.0 | 0.0 | 0.00 | 0.00 | 0.00 | 72 | 1015.9 |
| 20260902151921 | 8 | 272 | 0.0 | 0.0 | 0.00 | 0.00 | 0.00 | 72 | 1015.9 |
| 20260902151524 | 8 | 273 | 0.0 | 0.0 | 0.00 | 0.00 | 0.00 | 71 | 1015.9 |
| 20260902151314 | 8 | 273 | 0.0 | 0.0 | 0.00 | 0.00 | 0.00 | 71 | 1015.9 |
| 20260902151108 | 8 | 272 | 0.0 | 0.0 | 0.00 | 0.00 | 0.00 | 71 | 1015.9 |
| 20260902150856 | 8 | 273 | 0.0 | 0.0 | 0.00 | 0.00 | 0.00 | 71 | 1015.8 |
| 20260902150650 | 8 | 273 | 0.0 | 0.0 | 0.00 | 0.00 | 0.00 | 71 | 1015.8 |
| 20260902150442 | 8 | 272 | 0.0 | 0.0 | 0.00 | 0.00 | 0.00 | 71 | 1015.8 |
| 20260902150233 | 8 | 272 | 0.0 | 0.0 | 0.00 | 0.00 | 0.00 | 71 | 1015.8 |
| 20260902150031 | 8 | 272 | 0.0 | 0.0 | 0.00 | 0.00 | 0.00 | 71 | 1015.8 |
| 20260902145818 | 8 | 273 | 0.0 | 0.0 | 0.00 | 0.00 | 0.00 | 70 | 1015.7 |
| 20260902145427 | 8 | 273 | 0.0 | 0.0 | 0.00 | 0.00 | 0.00 | 70 | 1015.6 |
| 20260902145221 | 8 | 272 | 0.0 | 0.0 | 0.00 | 0.00 | 0.00 | 70 | 1015.6 |
| 20260902144824 | 8 | 272 | 0.0 | 0.0 | 0.00 | 0.00 | 0.00 | 70 | 1015.6 |
| 20260902144617 | 8 | 273 | 0.0 | 0.0 | 0.00 | 0.00 | 0.00 | 70 | 1015.5 |
| 20260902144414 | 8 | 272 | 0.0 | 0.0 | 0.00 | 0.00 | 0.00 | 70 | 1015.5 |
| 20260902144021 | 8 | 272 | 0.0 | 0.0 | 0.00 | 0.00 | 0.00 | 70 | 1015.5 |
| 20260902143625 | 8 | 273 | 0.0 | 0.0 | 0.00 | 0.00 | 0.00 | 70 | 1015.6 |
| 20260902143422 | 8 | 272 | 0.0 | 0.0 | 0.00 | 0.00 | 0.00 | 70 | 1015.6 |
| 20260902143221 | 8 | 272 | 0.0 | 0.0 | 0.00 | 0.00 | 0.00 | 70 | 1015.5 |
| 20260902143013 | 8 | 272 | 0.0 | 0.0 | 0.00 | 0.00 | 0.00 | 70 | 1015.4 |
| 20260902142803 | 7 | 273 | 0.0 | 0.0 | 0.00 | 0.00 | 0.00 | 70 | 1015.4 |
| 20260902142405 | 7 | 272 | 0.0 | 0.0 | 0.00 | 0.00 | 0.00 | 70 | 1015.4 |
| 20260902142201 | 7 | 273 | 0.0 | 0.0 | 0.00 | 0.00 | 0.00 | 69 | 1015.4 |
| 20260902141951 | 7 | 272 | 0.0 | 0.0 | 0.00 | 0.00 | 0.00 | 69 | 1015.4 |
| 20260902141740 | 7 | 272 | 0.0 | 0.0 | 0.00 | 0.00 | 0.00 | 69 | 1015.3 |
| 20260902141535 | 7 | 272 | 0.0 | 0.0 | 0.00 | 0.00 | 0.00 | 69 | 1015.4 |
| 20260902141326 | 7 | 272 | 0.0 | 0.0 | 0.00 | 0.00 | 0.00 | 69 | 1015.4 |
| 20260902140930 | 7 | 272 | 0.0 | 0.0 | 0.00 | 0.00 | 0.00 | 69 | 1015.4 |
| 20260902140728 | 7 | 273 | 0.0 | 0.0 | 0.00 | 0.00 | 0.00 | 69 | 1015.4 |
| 20260902140519 | 7 | 273 | 0.0 | 0.0 | 0.00 | 0.00 | 0.00 | 69 | 1015.4 |
| 20260902140306 | 7 | 273 | 0.0 | 0.0 | 0.00 | 0.00 | 0.00 | 69 | 1015.3 |
| 20260902140056 | 7 | 273 | 0.0 | 0.0 | 0.00 | 0.00 | 0.00 | 69 | 1015.3 |
| 20260902135845 | 7 | 272 | 0.0 | 0.0 | 0.00 | 0.00 | 0.00 | 69 | 1015.3 |
| 20260902135639 | 7 | 272 | 0.0 | 0.0 | 0.00 | 0.00 | 0.00 | 69 | 1015.3 |
| 20260902135430 | 7 | 273 | 0.0 | 0.0 | 0.00 | 0.00 | 0.00 | 69 | 1015.3 |
| 20260902135228 | 7 | 273 | 0.0 | 0.0 | 0.00 | 0.00 | 0.00 | 69 | 1015.3 |
| 20260902135024 | 7 | 272 | 0.0 | 0.0 | 0.00 | 0.00 | 0.00 | 69 | 1015.2 |
| 20260902134822 | 7 | 273 | 0.0 | 0.0 | 0.00 | 0.00 | 0.00 | 69 | 1015.1 |
| 20260902134613 | 7 | 272 | 0.0 | 0.0 | 0.00 | 0.00 | 0.00 | 69 | 1015.0 |
| 20260902134405 | 7 | 272 | 0.0 | 0.0 | 0.00 | 0.00 | 0.00 | 68 | 1015.0 |
| 20260902134201 | 7 | 273 | 0.0 | 0.0 | 0.00 | 0.00 | 0.00 | 69 | 1015.0 |
| 20260902133957 | 7 | 273 | 0.0 | 0.0 | 0.00 | 0.00 | 0.00 | 68 | 1015.0 |
| 20260902133748 | 7 | 273 | 0.0 | 0.0 | 0.00 | 0.00 | 0.00 | 68 | 1015.0 |
| 20260902133538 | 7 | 272 | 0.0 | 0.0 | 0.00 | 0.00 | 0.00 | 68 | 1015.1 |
| 20260902133140 | 7 | 272 | 0.0 | 0.0 | 0.00 | 0.00 | 0.00 | 68 | 1014.9 |
| 20260902132930 | 7 | 273 | 0.0 | 0.0 | 0.00 | 0.00 | 0.00 | 68 | 1015.0 |
| 20260902132727 | 7 | 272 | 0.0 | 0.0 | 0.00 | 0.00 | 0.00 | 68 | 1014.9 |
| 20260902132522 | 7 | 273 | 0.0 | 0.0 | 0.00 | 0.00 | 0.00 | 68 | 1014.9 |
| 20260902132315 | 7 | 273 | 0.0 | 0.0 | 0.00 | 0.00 | 0.00 | 68 | 1014.8 |
| 20260902131632 | 7 | 273 | 0.0 | 0.0 | 0.00 | 0.00 | 0.00 | 68 | 1014.8 |
| 20260902131424 | 7 | 272 | 0.0 | 0.0 | 0.00 | 0.00 | 0.00 | 68 | 1014.8 |
| 20260902130847 | 7 | 273 | 0.0 | 0.0 | 0.00 | 0.00 | 0.00 | 68 | 1014.8 |
| 20260902130635 | 7 | 273 | 0.0 | 0.0 | 0.00 | 0.00 | 0.00 | 68 | 1014.8 |
| 20260902130429 | 8 | 273 | 0.0 | 0.0 | 0.00 | 0.00 | 0.00 | 68 | 1014.7 |
| 20260902130219 | 8 | 272 | 0.0 | 0.0 | 0.00 | 0.00 | 0.00 | 68 | 1014.7 |
| 20260902125830 | 8 | 273 | 0.0 | 0.0 | 0.00 | 0.00 | 0.00 | 68 | 1014.7 |
| 20260902125623 | 8 | 273 | 0.0 | 0.0 | 0.00 | 0.00 | 0.00 | 68 | 1014.7 |
| 20260902125421 | 8 | 273 | 0.0 | 0.0 | 0.00 | 0.00 | 0.00 | 68 | 1014.7 |
| 20260902125212 | 8 | 273 | 0.0 | 0.0 | 0.00 | 0.00 | 0.00 | 68 | 1014.7 |
| 20260902124819 | 8 | 272 | 0.0 | 0.0 | 0.00 | 0.00 | 0.00 | 68 | 1014.6 |
| 20260902124613 | 8 | 273 | 0.0 | 0.0 | 0.00 | 0.00 | 0.00 | 68 | 1014.7 |
| 20260902124402 | 8 | 272 | 0.0 | 0.0 | 0.00 | 0.00 | 0.00 | 68 | 1014.7 |
| 20260902124151 | 8 | 272 | 0.0 | 0.0 | 0.00 | 0.00 | 0.00 | 68 | 1014.7 |
| 20260902123940 | 8 | 273 | 0.0 | 0.0 | 0.00 | 0.00 | 0.00 | 68 | 1014.6 |
| 20260902123739 | 8 | 273 | 0.0 | 0.0 | 0.00 | 0.00 | 0.00 | 68 | 1014.7 |
| 20260902123532 | 8 | 273 | 0.0 | 0.0 | 0.00 | 0.00 | 0.00 | 68 | 1014.7 |
| 20260902123320 | 8 | 273 | 0.0 | 0.0 | 0.00 | 0.00 | 0.00 | 68 | 1014.7 |
| 20260902123110 | 8 | 273 | 0.0 | 0.0 | 0.00 | 0.00 | 0.00 | 68 | 1014.8 |
| 20260902122856 | 8 | 272 | 0.0 | 0.0 | 0.00 | 0.00 | 0.00 | 67 | 1014.8 |
| 20260902122644 | 8 | 272 | 0.0 | 0.0 | 0.00 | 0.00 | 0.00 | 67 | 1014.7 |
| 20260902122443 | 8 | 273 | 0.0 | 0.0 | 0.00 | 0.00 | 0.00 | 67 | 1014.8 |
| 20260902122237 | 8 | 273 | 0.0 | 0.0 | 0.00 | 0.00 | 0.00 | 67 | 1014.7 |
| 20260902122026 | 8 | 273 | 0.0 | 0.0 | 0.00 | 0.00 | 0.00 | 67 | 1014.7 |
| 20260902121628 | 8 | 272 | 0.0 | 0.0 | 0.00 | 0.00 | 0.00 | 67 | 1014.8 |
| 20260902121422 | 8 | 272 | 0.0 | 0.0 | 0.00 | 0.00 | 0.00 | 67 | 1014.8 |
| 20260902121218 | 8 | 273 | 0.0 | 0.0 | 0.00 | 0.00 | 0.00 | 67 | 1014.8 |
| 20260902121014 | 8 | 273 | 0.0 | 0.0 | 0.00 | 0.00 | 0.00 | 67 | 1014.8 |
| 20260902120804 | 8 | 272 | 0.0 | 0.0 | 0.00 | 0.00 | 0.00 | 67 | 1014.8 |
| 20260902120550 | 8 | 272 | 0.0 | 0.0 | 0.00 | 0.00 | 0.00 | 67 | 1014.8 |
| 20260902120341 | 8 | 272 | 0.0 | 0.0 | 0.00 | 0.00 | 0.00 | 67 | 1014.8 |
| 20260902120132 | 8 | 273 | 0.0 | 0.0 | 0.00 | 0.00 | 0.00 | 67 | 1014.8 |
| 20260902115739 | 8 | 273 | 0.0 | 0.0 | 0.00 | 0.00 | 0.00 | 67 | 1014.8 |
| 20260902115527 | 8 | 273 | 0.0 | 0.0 | 0.00 | 0.00 | 0.00 | 67 | 1014.8 |
| 20260902115139 | 8 | 273 | 0.0 | 0.0 | 0.00 | 0.00 | 0.00 | 66 | 1014.8 |
| 20260902114935 | 8 | 272 | 0.0 | 0.0 | 0.00 | 0.00 | 0.00 | 66 | 1014.8 |
| 20260902114723 | 8 | 273 | 0.0 | 0.0 | 0.00 | 0.00 | 0.00 | 66 | 1014.9 |
| 20260902114511 | 8 | 273 | 0.0 | 0.0 | 0.00 | 0.00 | 0.00 | 66 | 1014.9 |
| 20260902114301 | 8 | 272 | 0.0 | 0.0 | 0.00 | 0.00 | 0.00 | 66 | 1014.9 |
| 20260902114059 | 8 | 272 | 0.0 | 0.0 | 0.00 | 0.00 | 0.00 | 66 | 1015.0 |
| 20260902113852 | 8 | 273 | 0.0 | 0.0 | 0.00 | 0.00 | 0.00 | 66 | 1015.0 |
| 20260902113648 | 8 | 273 | 0.0 | 0.0 | 0.00 | 0.00 | 0.00 | 66 | 1015.0 |
| 20260902113445 | 8 | 272 | 0.0 | 0.0 | 0.00 | 0.00 | 0.00 | 66 | 1015.0 |
| 20260902113057 | 8 | 273 | 0.0 | 0.0 | 0.00 | 0.00 | 0.00 | 66 | 1014.9 |
| 20260902112851 | 8 | 272 | 0.0 | 0.0 | 0.00 | 0.00 | 0.00 | 66 | 1014.9 |
| 20260902112456 | 8 | 272 | 0.0 | 0.0 | 0.00 | 0.00 | 0.00 | 66 | 1014.8 |
| 20260902112244 | 8 | 273 | 0.0 | 0.0 | 0.00 | 0.00 | 0.00 | 66 | 1014.9 |
| 20260902112034 | 8 | 273 | 0.0 | 0.0 | 0.00 | 0.00 | 0.00 | 66 | 1014.8 |
| 20260902111825 | 8 | 273 | 0.0 | 0.0 | 0.00 | 0.00 | 0.00 | 66 | 1014.8 |
| 20260902111613 | 8 | 272 | 0.0 | 0.0 | 0.00 | 0.00 | 0.00 | 65 | 1014.8 |
| 20260902111408 | 8 | 272 | 0.0 | 0.0 | 0.00 | 0.00 | 0.00 | 65 | 1014.8 |
| 20260902111157 | 8 | 272 | 0.0 | 0.0 | 0.00 | 0.00 | 0.00 | 65 | 1014.8 |
| 20260902110945 | 8 | 273 | 0.0 | 0.0 | 0.00 | 0.00 | 0.00 | 65 | 1014.8 |
| 20260902110741 | 8 | 272 | 0.0 | 0.0 | 0.00 | 0.00 | 0.00 | 65 | 1014.8 |
| 20260902110530 | 8 | 272 | 0.0 | 0.0 | 0.00 | 0.00 | 0.00 | 65 | 1014.8 |
| 20260902110321 | 8 | 273 | 0.0 | 0.0 | 0.00 | 0.00 | 0.00 | 65 | 1014.8 |
| 20260902110111 | 8 | 273 | 0.0 | 0.0 | 0.00 | 0.00 | 0.00 | 65 | 1014.8 |
| 20260902105907 | 8 | 273 | 0.0 | 0.0 | 0.00 | 0.00 | 0.00 | 65 | 1014.7 |
| 20260902105704 | 8 | 272 | 0.0 | 0.0 | 0.00 | 0.00 | 0.00 | 65 | 1014.8 |
| 20260902105309 | 8 | 273 | 0.0 | 0.0 | 0.00 | 0.00 | 0.00 | 65 | 1014.7 |
| 20260902104920 | 8 | 273 | 0.0 | 0.0 | 0.00 | 0.00 | 0.00 | 65 | 1014.8 |
| 20260902104716 | 8 | 272 | 0.0 | 0.0 | 0.00 | 0.00 | 0.00 | 65 | 1014.7 |
| 20260902104503 | 8 | 273 | 0.0 | 0.0 | 0.00 | 0.00 | 0.00 | 64 | 1014.7 |
| 20260902104250 | 8 | 272 | 0.0 | 0.0 | 0.00 | 0.00 | 0.00 | 64 | 1014.7 |
| 20260902104038 | 8 | 273 | 0.0 | 0.0 | 0.00 | 0.00 | 0.00 | 64 | 1014.7 |
| 20260902103829 | 8 | 273 | 0.0 | 0.0 | 0.00 | 0.00 | 0.00 | 64 | 1014.7 |
| 20260902103617 | 8 | 272 | 0.0 | 0.0 | 0.00 | 0.00 | 0.00 | 64 | 1014.7 |
| 20260902103411 | 8 | 273 | 0.0 | 0.0 | 0.00 | 0.00 | 0.00 | 64 | 1014.7 |
| 20260902103206 | 8 | 272 | 0.0 | 0.0 | 0.00 | 0.00 | 0.00 | 64 | 1014.7 |
| 20260902103005 | 8 | 273 | 0.0 | 0.0 | 0.00 | 0.00 | 0.00 | 64 | 1014.6 |
| 20260902102753 | 8 | 273 | 0.0 | 0.0 | 0.00 | 0.00 | 0.00 | 64 | 1014.6 |
| 20260902102545 | 8 | 272 | 0.0 | 0.0 | 0.00 | 0.00 | 0.00 | 64 | 1014.7 |
| 20260902102335 | 8 | 273 | 0.0 | 0.0 | 0.00 | 0.00 | 0.00 | 64 | 1014.6 |
| 20260902102133 | 8 | 273 | 0.0 | 0.0 | 0.00 | 0.00 | 0.00 | 64 | 1014.6 |
| 20260902101739 | 8 | 273 | 0.0 | 0.0 | 0.00 | 0.00 | 0.00 | 63 | 1014.6 |
| 20260902101534 | 8 | 273 | 0.0 | 0.0 | 0.00 | 0.00 | 0.00 | 63 | 1014.5 |
| 20260902101137 | 8 | 272 | 0.0 | 0.0 | 0.00 | 0.00 | 0.00 | 63 | 1014.6 |
| 20260902100934 | 8 | 273 | 0.0 | 0.0 | 0.00 | 0.00 | 0.00 | 63 | 1014.6 |
| 20260902100722 | 8 | 273 | 0.0 | 0.0 | 0.00 | 0.00 | 0.00 | 63 | 1014.6 |
| 20260902100514 | 8 | 273 | 0.0 | 0.0 | 0.00 | 0.00 | 0.00 | 63 | 1014.6 |
| 20260902100304 | 8 | 272 | 0.0 | 0.0 | 0.00 | 0.00 | 0.00 | 63 | 1014.5 |
| 20260902100058 | 8 | 273 | 0.0 | 0.0 | 0.00 | 0.00 | 0.00 | 63 | 1014.5 |
| 20260902095849 | 8 | 273 | 0.0 | 0.0 | 0.00 | 0.00 | 0.00 | 63 | 1014.5 |
| 20260902095639 | 8 | 273 | 0.0 | 0.0 | 0.00 | 0.00 | 0.00 | 63 | 1014.5 |
| 20260902095250 | 8 | 273 | 0.0 | 0.0 | 0.00 | 0.00 | 0.00 | 63 | 1014.5 |
| 20260902095043 | 8 | 272 | 0.0 | 0.0 | 0.00 | 0.00 | 0.00 | 63 | 1014.5 |
| 20260902094835 | 8 | 273 | 0.0 | 0.0 | 0.00 | 0.00 | 0.00 | 63 | 1014.6 |
| 20260902094626 | 8 | 273 | 0.0 | 0.0 | 0.00 | 0.00 | 0.00 | 62 | 1014.5 |
| 20260902094417 | 8 | 273 | 0.0 | 0.0 | 0.00 | 0.00 | 0.00 | 62 | 1014.5 |
| 20260902094215 | 8 | 272 | 0.0 | 0.0 | 0.00 | 0.00 | 0.00 | 62 | 1014.5 |
| 20260902094003 | 8 | 273 | 0.0 | 0.0 | 0.00 | 0.00 | 0.00 | 62 | 1014.6 |
| 20260902093757 | 8 | 273 | 0.0 | 0.0 | 0.00 | 0.00 | 0.00 | 62 | 1014.5 |
| 20260902093547 | 8 | 272 | 0.0 | 0.0 | 0.00 | 0.00 | 0.00 | 62 | 1014.6 |
| 20260902093335 | 9 | 273 | 0.0 | 0.0 | 0.00 | 0.00 | 0.00 | 62 | 1014.6 |
| 20260902093124 | 9 | 273 | 0.0 | 0.0 | 0.00 | 0.00 | 0.00 | 62 | 1014.6 |
| 20260902092913 | 9 | 273 | 0.0 | 0.0 | 0.00 | 0.00 | 0.00 | 62 | 1014.6 |
| 20260902092710 | 9 | 273 | 0.0 | 0.0 | 0.00 | 0.00 | 0.00 | 61 | 1014.6 |
| 20260902092504 | 9 | 272 | 0.0 | 0.0 | 0.00 | 0.00 | 0.00 | 61 | 1014.6 |
| 20260902092300 | 9 | 272 | 0.0 | 0.0 | 0.00 | 0.00 | 0.00 | 61 | 1014.6 |
| 20260902092052 | 9 | 272 | 0.0 | 0.0 | 0.00 | 0.00 | 0.00 | 61 | 1014.7 |
| 20260902091841 | 9 | 273 | 0.0 | 0.0 | 0.00 | 0.00 | 0.00 | 61 | 1014.6 |
| 20260902091636 | 9 | 273 | 0.0 | 0.0 | 0.00 | 0.00 | 0.00 | 61 | 1014.6 |
| 20260902091429 | 9 | 273 | 0.0 | 0.0 | 0.00 | 0.00 | 0.00 | 61 | 1014.6 |
| 20260902091219 | 9 | 273 | 0.0 | 0.0 | 0.00 | 0.00 | 0.00 | 61 | 1014.7 |
| 20260902090822 | 9 | 273 | 0.0 | 0.0 | 0.00 | 0.00 | 0.00 | 61 | 1014.7 |
| 20260902090616 | 9 | 273 | 0.0 | 0.0 | 0.00 | 0.00 | 0.00 | 61 | 1014.6 |
| 20260902090403 | 9 | 273 | 0.0 | 0.0 | 0.00 | 0.00 | 0.00 | 61 | 1014.6 |
| 20260902090152 | 9 | 273 | 0.0 | 0.0 | 0.00 | 0.00 | 0.00 | 61 | 1014.6 |
| 20260902085946 | 9 | 273 | 0.0 | 0.0 | 0.00 | 0.00 | 0.00 | 61 | 1014.7 |
| 20260902085737 | 9 | 273 | 0.0 | 0.0 | 0.00 | 0.00 | 0.00 | 60 | 1014.6 |
| 20260902085524 | 9 | 272 | 0.0 | 0.0 | 0.00 | 0.00 | 0.00 | 60 | 1014.6 |
| 20260902085317 | 9 | 272 | 0.0 | 0.0 | 0.00 | 0.00 | 0.00 | 60 | 1014.6 |
| 20260902085107 | 9 | 272 | 0.0 | 0.0 | 0.00 | 0.00 | 0.00 | 60 | 1014.6 |
| 20260902084904 | 9 | 273 | 0.0 | 0.0 | 0.00 | 0.00 | 0.00 | 60 | 1014.6 |
| 20260902084657 | 9 | 272 | 0.0 | 0.0 | 0.00 | 0.00 | 0.00 | 60 | 1014.6 |
| 20260902084455 | 9 | 273 | 0.0 | 0.0 | 0.00 | 0.00 | 0.00 | 60 | 1014.6 |
| 20260902084251 | 9 | 272 | 0.0 | 0.0 | 0.00 | 0.00 | 0.00 | 60 | 1014.7 |
| 20260902084043 | 9 | 273 | 0.0 | 0.0 | 0.00 | 0.00 | 0.00 | 60 | 1014.6 |
| 20260902083831 | 9 | 272 | 0.0 | 0.0 | 0.00 | 0.00 | 0.00 | 60 | 1014.6 |
| 20260902083629 | 9 | 272 | 0.0 | 0.0 | 0.00 | 0.00 | 0.00 | 60 | 1014.6 |
| 20260902083417 | 9 | 273 | 0.0 | 0.0 | 0.00 | 0.00 | 0.00 | 60 | 1014.6 |
| 20260902083211 | 9 | 273 | 0.0 | 0.0 | 0.00 | 0.00 | 0.00 | 60 | 1014.7 |
| 20260902082958 | 9 | 273 | 0.0 | 0.0 | 0.00 | 0.00 | 0.00 | 60 | 1014.6 |
| 20260902082751 | 9 | 273 | 0.0 | 0.0 | 0.00 | 0.00 | 0.00 | 60 | 1014.6 |
| 20260902082548 | 9 | 273 | 0.0 | 0.0 | 0.00 | 0.00 | 0.00 | 60 | 1014.6 |
| 20260902082336 | 9 | 273 | 0.0 | 0.0 | 0.00 | 0.00 | 0.00 | 60 | 1014.6 |
| 20260902082130 | 9 | 273 | 0.0 | 0.0 | 0.00 | 0.00 | 0.00 | 60 | 1014.6 |
| 20260902081739 | 9 | 272 | 0.0 | 0.0 | 0.00 | 0.00 | 0.00 | 61 | 1014.5 |
| 20260902081534 | 9 | 273 | 0.0 | 0.0 | 0.00 | 0.00 | 0.00 | 61 | 1014.5 |
| 20260902081138 | 9 | 273 | 0.0 | 0.0 | 0.00 | 0.00 | 0.00 | 61 | 1014.5 |
| 20260902080928 | 9 | 272 | 0.0 | 0.0 | 0.00 | 0.00 | 0.00 | 61 | 1014.5 |
| 20260902080716 | 9 | 272 | 0.0 | 0.0 | 0.00 | 0.00 | 0.00 | 61 | 1014.4 |
| 20260902080512 | 9 | 272 | 0.0 | 0.0 | 0.00 | 0.00 | 0.00 | 61 | 1014.4 |
| 20260902080305 | 9 | 272 | 0.0 | 0.0 | 0.00 | 0.00 | 0.00 | 61 | 1014.4 |
| 20260902080056 | 10 | 272 | 0.0 | 0.0 | 0.00 | 0.00 | 0.00 | 61 | 1014.4 |
| 20260902075845 | 10 | 273 | 0.0 | 0.0 | 0.00 | 0.00 | 0.00 | 61 | 1014.4 |
| 20260902075632 | 10 | 273 | 0.0 | 0.0 | 0.00 | 0.00 | 0.00 | 62 | 1014.4 |
| 20260902075244 | 10 | 272 | 0.0 | 0.0 | 0.00 | 0.00 | 0.00 | 62 | 1014.4 |
| 20260902075032 | 10 | 273 | 0.0 | 0.0 | 0.00 | 0.00 | 0.00 | 62 | 1014.3 |
| 20260902074825 | 10 | 273 | 0.0 | 0.0 | 0.00 | 0.00 | 0.00 | 62 | 1014.4 |
| 20260902074616 | 10 | 272 | 0.0 | 0.0 | 0.00 | 0.00 | 0.00 | 62 | 1014.2 |
| 20260902074410 | 10 | 272 | 0.0 | 0.0 | 0.00 | 0.00 | 0.00 | 62 | 1014.3 |
| 20260902074205 | 10 | 272 | 0.0 | 0.0 | 0.00 | 0.00 | 0.00 | 62 | 1014.2 |
| 20260902073955 | 10 | 273 | 0.0 | 0.0 | 0.00 | 0.00 | 0.00 | 62 | 1014.2 |
| 20260902073754 | 10 | 272 | 0.0 | 0.0 | 0.00 | 0.00 | 0.00 | 62 | 1014.1 |
| 20260902073553 | 10 | 273 | 0.0 | 0.0 | 0.00 | 0.00 | 0.00 | 62 | 1014.1 |
| 20260902073345 | 10 | 272 | 0.0 | 0.0 | 0.00 | 0.00 | 0.00 | 62 | 1014.0 |
| 20260902073133 | 10 | 273 | 0.0 | 0.0 | 0.00 | 0.00 | 0.00 | 62 | 1014.0 |
| 20260902072928 | 10 | 272 | 0.0 | 0.0 | 0.00 | 0.00 | 0.00 | 62 | 1013.9 |
| 20260902072535 | 10 | 273 | 0.0 | 0.0 | 0.00 | 0.00 | 0.00 | 62 | 1013.8 |
| 20260902072327 | 10 | 273 | 0.0 | 0.0 | 0.00 | 0.00 | 0.00 | 62 | 1013.8 |
| 20260902071932 | 10 | 273 | 0.0 | 0.0 | 0.00 | 0.00 | 0.00 | 63 | 1013.8 |
| 20260902071722 | 10 | 273 | 0.0 | 0.0 | 0.00 | 0.00 | 0.00 | 63 | 1013.8 |
| 20260902071521 | 10 | 273 | 0.0 | 0.0 | 0.00 | 0.00 | 0.00 | 63 | 1013.8 |
| 20260902071319 | 10 | 272 | 0.0 | 0.0 | 0.00 | 0.00 | 0.00 | 63 | 1013.8 |
| 20260902071117 | 10 | 273 | 0.0 | 0.0 | 0.00 | 0.00 | 0.00 | 63 | 1013.8 |
| 20260902070909 | 10 | 272 | 0.0 | 0.0 | 0.00 | 0.00 | 0.00 | 63 | 1013.9 |
| 20260902070659 | 10 | 273 | 0.0 | 0.0 | 0.00 | 0.00 | 0.00 | 63 | 1013.9 |
| 20260902070453 | 10 | 273 | 0.0 | 0.0 | 0.00 | 0.00 | 0.00 | 63 | 1013.9 |
| 20260902070242 | 10 | 273 | 0.0 | 0.0 | 0.00 | 0.00 | 0.00 | 63 | 1013.9 |
| 20260902065848 | 10 | 272 | 0.0 | 0.0 | 0.00 | 0.00 | 0.00 | 63 | 1014.0 |
| 20260902065636 | 10 | 273 | 0.0 | 0.0 | 0.00 | 0.00 | 0.00 | 63 | 1013.9 |
| 20260902065433 | 10 | 272 | 0.0 | 0.0 | 0.00 | 0.00 | 0.00 | 63 | 1013.9 |
| 20260902065229 | 10 | 273 | 0.0 | 0.0 | 0.00 | 0.00 | 0.00 | 63 | 1013.9 |
| 20260902065016 | 10 | 272 | 0.0 | 0.0 | 0.00 | 0.00 | 0.00 | 62 | 1013.8 |
| 20260902064803 | 10 | 272 | 0.0 | 0.0 | 0.00 | 0.00 | 0.00 | 62 | 1013.7 |
| 20260902064412 | 10 | 273 | 0.0 | 0.0 | 0.00 | 0.00 | 0.00 | 62 | 1013.7 |
| 20260902064209 | 10 | 273 | 0.0 | 0.0 | 0.00 | 0.00 | 0.00 | 63 | 1013.7 |
| 20260902064002 | 10 | 272 | 0.0 | 0.0 | 0.00 | 0.00 | 0.00 | 62 | 1013.6 |
| 20260902063749 | 10 | 272 | 0.0 | 0.0 | 0.00 | 0.00 | 0.00 | 62 | 1013.7 |
| 20260902063547 | 10 | 272 | 0.0 | 0.0 | 0.00 | 0.00 | 0.00 | 62 | 1013.7 |
| 20260902063345 | 11 | 273 | 0.0 | 0.0 | 0.00 | 0.00 | 0.00 | 62 | 1013.7 |
| 20260902063133 | 11 | 273 | 0.0 | 0.0 | 0.00 | 0.00 | 0.00 | 62 | 1013.7 |
| 20260902062745 | 11 | 272 | 0.0 | 0.0 | 0.00 | 0.00 | 0.00 | 62 | 1013.7 |
| 20260902062213 | 11 | 273 | 0.0 | 0.0 | 0.00 | 0.00 | 0.00 | 62 | 1013.8 |
| 20260902062011 | 11 | 273 | 0.0 | 0.0 | 0.00 | 0.00 | 0.00 | 62 | 1013.8 |
| 20260902061802 | 11 | 273 | 0.0 | 0.0 | 0.00 | 0.00 | 0.00 | 62 | 1013.8 |
| 20260902061550 | 11 | 272 | 0.0 | 0.0 | 0.00 | 0.00 | 0.00 | 62 | 1013.8 |
| 20260902061341 | 11 | 273 | 0.0 | 0.0 | 0.00 | 0.00 | 0.00 | 62 | 1013.7 |
| 20260902061128 | 11 | 272 | 0.0 | 0.0 | 0.00 | 0.00 | 0.00 | 63 | 1013.7 |
| 20260902060920 | 11 | 272 | 0.0 | 0.0 | 0.00 | 0.00 | 0.00 | 63 | 1013.7 |
| 20260902060710 | 11 | 273 | 0.0 | 0.0 | 0.00 | 0.00 | 0.00 | 62 | 1013.7 |
| 20260902060503 | 11 | 272 | 0.0 | 0.0 | 0.00 | 0.00 | 0.00 | 62 | 1013.7 |
| 20260902060116 | 11 | 272 | 0.0 | 0.0 | 0.00 | 0.00 | 0.00 | 62 | 1013.7 |
| 20260902055915 | 11 | 273 | 0.0 | 0.0 | 0.00 | 0.00 | 0.00 | 62 | 1013.6 |
| 20260902055711 | 11 | 273 | 0.0 | 0.0 | 0.00 | 0.00 | 0.00 | 62 | 1013.8 |
| 20260902055501 | 11 | 273 | 0.0 | 0.0 | 0.00 | 0.00 | 0.00 | 62 | 1013.8 |
| 20260902055256 | 11 | 273 | 0.0 | 0.0 | 0.00 | 0.00 | 0.00 | 62 | 1013.7 |
| 20260902054902 | 11 | 272 | 0.0 | 0.0 | 0.00 | 0.00 | 0.00 | 62 | 1013.8 |
| 20260902054700 | 11 | 272 | 0.0 | 0.0 | 0.00 | 0.00 | 0.00 | 62 | 1013.7 |
| 20260902054309 | 11 | 272 | 0.0 | 0.0 | 0.00 | 0.00 | 0.00 | 61 | 1013.8 |
| 20260902054059 | 11 | 272 | 0.0 | 0.0 | 0.00 | 0.00 | 0.00 | 61 | 1013.8 |
| 20260902053854 | 11 | 273 | 0.0 | 0.0 | 0.00 | 0.00 | 0.00 | 61 | 1013.8 |
| 20260902053643 | 12 | 272 | 0.0 | 0.0 | 0.00 | 0.00 | 0.00 | 61 | 1013.8 |
| 20260902053439 | 12 | 272 | 0.0 | 0.0 | 0.00 | 0.00 | 0.00 | 61 | 1013.9 |
| 20260902053229 | 12 | 272 | 0.0 | 0.0 | 0.00 | 0.00 | 0.00 | 61 | 1013.9 |
| 20260902053025 | 12 | 272 | 0.0 | 0.0 | 0.00 | 0.00 | 0.00 | 61 | 1013.9 |
| 20260902052816 | 12 | 272 | 0.0 | 0.0 | 0.00 | 0.00 | 0.00 | 61 | 1013.8 |
| 20260902052607 | 12 | 272 | 0.0 | 0.0 | 0.00 | 0.00 | 0.00 | 60 | 1013.9 |
| 20260902052403 | 12 | 273 | 0.0 | 0.0 | 0.00 | 0.00 | 0.00 | 60 | 1013.9 |
| 20260902052152 | 12 | 272 | 0.0 | 0.0 | 0.00 | 0.00 | 0.00 | 60 | 1013.9 |
| 20260902051944 | 12 | 272 | 0.0 | 0.0 | 0.00 | 0.00 | 0.00 | 60 | 1014.0 |
| 20260902051732 | 12 | 272 | 0.0 | 0.0 | 0.00 | 0.00 | 0.00 | 60 | 1013.9 |
| 20260902051522 | 12 | 272 | 0.0 | 0.0 | 0.00 | 0.00 | 0.00 | 60 | 1014.0 |
| 20260902051318 | 12 | 272 | 0.0 | 0.0 | 0.00 | 0.00 | 0.00 | 60 | 1013.9 |
| 20260902051115 | 12 | 272 | 0.0 | 0.0 | 0.00 | 0.00 | 0.00 | 59 | 1013.9 |
| 20260902050903 | 12 | 273 | 0.0 | 0.0 | 0.00 | 0.00 | 0.00 | 59 | 1013.8 |
| 20260902050657 | 12 | 272 | 0.0 | 0.0 | 0.00 | 0.00 | 0.00 | 59 | 1013.8 |
| 20260902050311 | 12 | 273 | 0.0 | 0.0 | 0.00 | 0.00 | 0.00 | 59 | 1013.8 |
| 20260902050108 | 12 | 272 | 0.0 | 0.0 | 0.00 | 0.00 | 0.00 | 59 | 1013.8 |
| 20260902045857 | 12 | 272 | 0.0 | 0.0 | 0.00 | 0.00 | 0.00 | 58 | 1013.7 |
| 20260902045500 | 13 | 272 | 0.0 | 0.0 | 0.00 | 0.00 | 0.00 | 58 | 1013.8 |
| 20260902045254 | 13 | 272 | 0.0 | 0.0 | 0.00 | 0.00 | 0.00 | 58 | 1013.8 |
| 20260902045045 | 13 | 273 | 0.0 | 0.0 | 0.00 | 0.00 | 0.00 | 58 | 1013.7 |
| 20260902044658 | 13 | 272 | 0.0 | 0.0 | 0.00 | 0.00 | 0.00 | 58 | 1013.7 |
| 20260902044448 | 13 | 273 | 0.0 | 0.0 | 0.00 | 0.00 | 0.00 | 58 | 1013.7 |
| 20260902044244 | 13 | 272 | 0.0 | 0.0 | 0.00 | 0.00 | 0.00 | 57 | 1013.6 |
| 20260902044041 | 13 | 272 | 0.0 | 0.0 | 0.00 | 0.00 | 0.00 | 57 | 1013.5 |
| 20260902043830 | 13 | 272 | 0.0 | 0.0 | 0.00 | 0.00 | 0.00 | 57 | 1013.5 |
| 20260902043620 | 13 | 272 | 0.0 | 0.0 | 0.00 | 0.00 | 0.00 | 57 | 1013.5 |
| 20260902043413 | 13 | 272 | 0.0 | 0.0 | 0.00 | 0.00 | 0.00 | 56 | 1013.4 |
| 20260902043205 | 13 | 273 | 0.0 | 0.0 | 0.00 | 0.00 | 0.00 | 56 | 1013.4 |
| 20260902043002 | 13 | 272 | 0.0 | 0.0 | 0.00 | 0.00 | 0.00 | 56 | 1013.4 |
| 20260902042758 | 13 | 272 | 0.0 | 0.0 | 0.00 | 0.00 | 0.00 | 56 | 1013.4 |
| 20260902042552 | 13 | 272 | 0.0 | 0.0 | 0.00 | 0.00 | 0.00 | 56 | 1013.4 |
| 20260902042156 | 13 | 272 | 0.0 | 0.0 | 0.00 | 0.00 | 0.00 | 55 | 1013.2 |
| 20260902041952 | 13 | 272 | 0.0 | 0.0 | 0.00 | 0.00 | 0.00 | 55 | 1013.2 |
| 20260902041742 | 14 | 273 | 0.0 | 0.0 | 0.00 | 0.00 | 0.00 | 55 | 1013.2 |
| 20260902041537 | 14 | 272 | 0.0 | 0.0 | 0.00 | 0.00 | 0.00 | 55 | 1013.1 |
| 20260902041005 | 14 | 272 | 0.0 | 0.0 | 0.00 | 0.00 | 0.00 | 54 | 1013.1 |
| 20260902040755 | 14 | 273 | 0.0 | 0.0 | 0.00 | 0.00 | 0.00 | 54 | 1013.1 |
| 20260902040548 | 14 | 272 | 0.0 | 0.0 | 0.00 | 0.00 | 0.00 | 54 | 1013.0 |
| 20260902040343 | 14 | 273 | 0.0 | 0.0 | 0.00 | 0.00 | 0.00 | 54 | 1013.0 |
| 20260902040137 | 15 | 272 | 0.0 | 0.0 | 0.00 | 0.00 | 0.00 | 53 | 1013.0 |
| 20260902035933 | 15 | 272 | 0.0 | 0.0 | 0.00 | 0.00 | 0.00 | 53 | 1013.0 |
| 20260902035722 | 15 | 272 | 0.0 | 0.0 | 0.00 | 0.00 | 0.00 | 53 | 1013.0 |
| 20260902035510 | 15 | 272 | 0.0 | 0.0 | 0.00 | 0.00 | 0.00 | 53 | 1013.0 |
| 20260902035308 | 15 | 272 | 0.0 | 0.0 | 0.00 | 0.00 | 0.00 | 53 | 1013.0 |
| 20260902035058 | 15 | 272 | 0.0 | 0.0 | 0.00 | 0.00 | 0.00 | 53 | 1012.9 |
| 20260902034849 | 15 | 272 | 0.0 | 0.0 | 0.00 | 0.00 | 0.00 | 52 | 1012.8 |
| 20260902034645 | 15 | 272 | 0.0 | 0.0 | 0.00 | 0.00 | 0.00 | 52 | 1012.8 |
| 20260902034251 | 15 | 272 | 0.0 | 0.0 | 0.00 | 0.00 | 0.00 | 52 | 1012.8 |
| 20260902033716 | 16 | 272 | 0.0 | 0.0 | 0.00 | 0.00 | 0.00 | 51 | 1012.7 |
| 20260902033321 | 16 | 272 | 0.0 | 0.0 | 0.00 | 0.00 | 0.00 | 51 | 1012.7 |
| 20260902033110 | 16 | 272 | 0.0 | 0.0 | 0.00 | 0.00 | 0.00 | 50 | 1012.6 |
| 20260902032722 | 16 | 272 | 0.0 | 0.0 | 0.00 | 0.00 | 0.00 | 50 | 1012.7 |
| 20260902032518 | 16 | 272 | 0.0 | 0.0 | 0.00 | 0.00 | 0.00 | 50 | 1012.7 |
| 20260902032307 | 16 | 272 | 0.0 | 0.0 | 0.00 | 0.00 | 0.00 | 50 | 1012.7 |
| 20260902032059 | 16 | 272 | 0.0 | 0.0 | 0.00 | 0.00 | 0.00 | 49 | 1012.7 |
| 20260902031854 | 16 | 272 | 0.0 | 0.0 | 0.00 | 0.00 | 0.00 | 49 | 1012.7 |
| 20260902031644 | 17 | 272 | 0.0 | 0.0 | 0.00 | 0.00 | 0.00 | 49 | 1012.7 |
| 20260902031247 | 17 | 272 | 0.0 | 0.0 | 0.00 | 0.00 | 0.00 | 49 | 1012.6 |
| 20260902031038 | 17 | 272 | 0.0 | 0.0 | 0.00 | 0.00 | 0.00 | 48 | 1012.6 |
| 20260902030831 | 17 | 272 | 0.0 | 0.0 | 0.00 | 0.00 | 0.00 | 48 | 1012.7 |
| 20260902030627 | 17 | 272 | 0.0 | 0.0 | 0.00 | 0.00 | 0.00 | 48 | 1012.6 |
| 20260902030421 | 17 | 272 | 0.0 | 0.0 | 0.00 | 0.00 | 0.00 | 47 | 1012.7 |
| 20260902030216 | 17 | 272 | 0.0 | 0.0 | 0.00 | 0.00 | 0.00 | 47 | 1012.7 |
| 20260902030007 | 17 | 272 | 0.0 | 0.0 | 0.00 | 0.00 | 0.00 | 47 | 1012.7 |
| 20260902025806 | 18 | 272 | 0.0 | 0.0 | 0.00 | 0.00 | 0.00 | 47 | 1012.6 |
| 20260902025556 | 18 | 272 | 0.0 | 0.0 | 0.00 | 0.00 | 0.00 | 46 | 1012.6 |
| 20260902025351 | 18 | 272 | 0.0 | 0.0 | 0.00 | 0.00 | 0.00 | 46 | 1012.6 |
| 20260902025146 | 18 | 272 | 0.0 | 0.0 | 0.00 | 0.00 | 0.00 | 46 | 1012.5 |
| 20260902024934 | 18 | 272 | 0.0 | 0.0 | 0.00 | 0.00 | 0.00 | 46 | 1012.5 |
| 20260902024726 | 18 | 272 | 0.0 | 0.0 | 0.00 | 0.00 | 0.00 | 46 | 1012.5 |
| 20260902024337 | 18 | 272 | 0.0 | 0.0 | 0.00 | 0.00 | 0.00 | 46 | 1012.4 |
| 20260902023946 | 18 | 272 | 0.0 | 0.0 | 0.00 | 0.00 | 0.00 | 46 | 1012.3 |
| 20260902023739 | 18 | 272 | 0.0 | 0.0 | 0.00 | 0.00 | 0.00 | 45 | 1012.2 |
| 20260902023531 | 18 | 272 | 0.0 | 0.0 | 0.00 | 0.00 | 0.00 | 45 | 1012.2 |
| 20260902023317 | 18 | 272 | 0.0 | 0.0 | 0.00 | 0.00 | 0.00 | 45 | 1012.2 |
| 20260902023115 | 19 | 272 | 0.0 | 0.0 | 0.00 | 0.00 | 0.00 | 45 | 1012.2 |
| 20260902022901 | 19 | 272 | 0.0 | 0.0 | 0.00 | 0.00 | 0.00 | 45 | 1012.2 |
| 20260902022656 | 19 | 272 | 0.0 | 0.0 | 0.00 | 0.00 | 0.00 | 45 | 1012.2 |
| 20260902022452 | 19 | 272 | 0.0 | 4.8 | 0.00 | 0.00 | 0.00 | 45 | 1012.2 |
| 20260902022242 | 19 | 272 | 0.0 | 0.0 | 0.00 | 0.00 | 0.00 | 45 | 1012.2 |
| 20260902022040 | 19 | 272 | 0.0 | 0.0 | 0.00 | 0.00 | 0.00 | 45 | 1012.2 |
| 20260902021832 | 19 | 272 | 0.0 | 0.0 | 0.00 | 0.00 | 0.00 | 45 | 1012.2 |
| 20260902021623 | 19 | 272 | 0.0 | 0.0 | 0.00 | 0.00 | 0.00 | 44 | 1012.2 |
| 20260902021412 | 20 | 272 | 0.0 | 0.0 | 0.00 | 0.00 | 0.00 | 44 | 1012.2 |
| 20260902021020 | 20 | 272 | 0.0 | 0.0 | 0.00 | 0.00 | 0.00 | 44 | 1012.0 |
| 20260902020814 | 20 | 272 | 0.0 | 0.0 | 0.00 | 0.00 | 0.00 | 43 | 1012.0 |
| 20260902020424 | 20 | 272 | 0.0 | 3.2 | 0.00 | 0.00 | 0.00 | 43 | 1012.0 |
| 20260902020214 | 20 | 272 | 0.0 | 0.0 | 0.00 | 0.00 | 0.00 | 43 | 1012.0 |
| 20260902020012 | 20 | 272 | 0.0 | 0.0 | 0.00 | 0.00 | 0.00 | 44 | 1012.0 |
| 20260902015615 | 20 | 272 | 0.0 | 3.2 | 0.00 | 0.00 | 0.00 | 43 | 1011.9 |
| 20260902015401 | 20 | 272 | 0.0 | 0.0 | 0.00 | 0.00 | 0.00 | 42 | 1011.9 |
| 20260902015007 | 20 | 272 | 0.0 | 4.8 | 0.00 | 0.00 | 0.00 | 42 | 1011.9 |
| 20260902014757 | 20 | 272 | 0.0 | 4.8 | 0.00 | 0.00 | 0.00 | 42 | 1011.9 |
| 20260902014551 | 21 | 255 | 0.0 | 0.0 | 0.00 | 0.00 | 0.00 | 41 | 1012.0 |
| 20260902014342 | 21 | 255 | 0.0 | 0.0 | 0.00 | 0.00 | 0.00 | 41 | 1012.0 |
| 20260902014138 | 21 | 255 | 0.0 | 3.2 | 0.00 | 0.00 | 0.00 | 39 | 1011.9 |
| 20260902013932 | 21 | 255 | 0.0 | 0.0 | 0.00 | 0.00 | 0.00 | 39 | 1011.9 |
| 20260902013720 | 21 | 255 | 0.0 | 0.0 | 0.00 | 0.00 | 0.00 | 39 | 1011.8 |
| 20260902013514 | 21 | 255 | 0.0 | 0.0 | 0.00 | 0.00 | 0.00 | 39 | 1011.7 |
| 20260902013307 | 21 | 255 | 0.0 | 0.0 | 0.00 | 0.00 | 0.00 | 39 | 1011.7 |
| 20260902012911 | 21 | 255 | 0.0 | 0.0 | 0.00 | 0.00 | 0.00 | 38 | 1011.7 |
| 20260902012706 | 21 | 255 | 0.0 | 1.6 | 0.00 | 0.00 | 0.00 | 38 | 1011.7 |
| 20260902012502 | 21 | 255 | 0.0 | 1.6 | 0.00 | 0.00 | 0.00 | 37 | 1011.6 |
| 20260902012301 | 21 | 255 | 0.0 | 1.6 | 0.00 | 0.00 | 0.00 | 37 | 1011.6 |
| 20260902012049 | 21 | 255 | 0.0 | 1.6 | 0.00 | 0.00 | 0.00 | 37 | 1011.7 |
| 20260902011517 | 22 | 266 | 0.0 | 4.8 | 0.00 | 0.00 | 0.00 | 36 | 1011.7 |
| 20260902011316 | 22 | 269 | 0.0 | 1.6 | 0.00 | 0.00 | 0.00 | 36 | 1011.6 |
| 20260902011102 | 22 | 269 | 0.0 | 6.4 | 0.00 | 0.00 | 0.00 | 35 | 1011.6 |
| 20260902010706 | 22 | 268 | 0.0 | 6.4 | 0.00 | 0.00 | 0.00 | 35 | 1011.7 |
| 20260902010503 | 22 | 219 | 0.0 | 3.2 | 0.00 | 0.00 | 0.00 | 36 | 1011.7 |
| 20260902010254 | 22 | 219 | 0.0 | 3.2 | 0.00 | 0.00 | 0.00 | 36 | 1011.6 |
| 20260902010042 | 22 | 219 | 0.0 | 1.6 | 0.00 | 0.00 | 0.00 | 35 | 1011.6 |
| 20260902005834 | 22 | 219 | 0.0 | 1.6 | 0.00 | 0.00 | 0.00 | 35 | 1011.6 |
| 20260902005624 | 22 | 219 | 0.0 | 1.6 | 0.00 | 0.00 | 0.00 | 35 | 1011.6 |
| 20260902005419 | 22 | 219 | 0.0 | 0.0 | 0.00 | 0.00 | 0.00 | 35 | 1011.6 |
| 20260902005217 | 22 | 219 | 0.0 | 8.0 | 0.00 | 0.00 | 0.00 | 35 | 1011.6 |
| 20260902005006 | 22 | 219 | 0.0 | 8.0 | 0.00 | 0.00 | 0.00 | 35 | 1011.6 |
| 20260902004803 | 22 | 220 | 1.6 | 8.0 | 0.00 | 0.00 | 0.00 | 35 | 1011.5 |
| 20260902004550 | 22 | 220 | 1.6 | 8.0 | 0.00 | 0.00 | 0.00 | 34 | 1011.5 |
| 20260902004338 | 22 | 220 | 0.0 | 8.0 | 0.00 | 0.00 | 0.00 | 34 | 1011.6 |
| 20260902004131 | 22 | 221 | 0.0 | 6.4 | 0.00 | 0.00 | 0.00 | 34 | 1011.6 |
| 20260902003919 | 23 | 217 | 0.0 | 6.4 | 0.00 | 0.00 | 0.00 | 34 | 1011.6 |
| 20260902003718 | 23 | 218 | 0.0 | 6.4 | 0.00 | 0.00 | 0.00 | 35 | 1011.6 |
| 20260902003515 | 23 | 219 | 0.0 | 9.7 | 0.00 | 0.00 | 0.00 | 35 | 1011.5 |
| 20260902003307 | 23 | 219 | 0.0 | 9.7 | 0.00 | 0.00 | 0.00 | 34 | 1011.6 |
| 20260902003054 | 23 | 219 | 1.6 | 9.7 | 0.00 | 0.00 | 0.00 | 34 | 1011.6 |
| 20260902002842 | 23 | 238 | 1.6 | 9.7 | 0.00 | 0.00 | 0.00 | 34 | 1011.5 |
| 20260902002637 | 23 | 238 | 1.6 | 9.7 | 0.00 | 0.00 | 0.00 | 34 | 1011.4 |
| 20260902002250 | 23 | 239 | 1.6 | 9.7 | 0.00 | 0.00 | 0.00 | 33 | 1011.4 |
| 20260902002040 | 23 | 219 | 1.6 | 9.7 | 0.00 | 0.00 | 0.00 | 31 | 1011.4 |
| 20260902001837 | 23 | 219 | 1.6 | 9.7 | 0.00 | 0.00 | 0.00 | 32 | 1011.5 |
| 20260902001635 | 23 | 213 | 0.0 | 8.0 | 0.00 | 0.00 | 0.00 | 32 | 1011.5 |
| 20260902001425 | 23 | 215 | 0.0 | 6.4 | 0.00 | 0.00 | 0.00 | 33 | 1011.4 |
| 20260902001218 | 23 | 215 | 0.0 | 6.4 | 0.00 | 0.00 | 0.00 | 33 | 1011.5 |
| 20260902001008 | 24 | 215 | 0.0 | 6.4 | 0.00 | 0.00 | 0.00 | 31 | 1011.4 |
| 20260902000756 | 24 | 215 | 0.0 | 8.0 | 0.00 | 0.00 | 0.00 | 31 | 1011.5 |
| 20260902000551 | 24 | 215 | 0.0 | 8.0 | 0.00 | 0.00 | 0.00 | 32 | 1011.5 |
| 20260902000341 | 24 | 215 | 0.0 | 8.0 | 0.00 | 0.00 | 0.00 | 32 | 1011.5 |
| 20260902000130 | 24 | 215 | 0.0 | 8.0 | 0.00 | 0.00 | 0.00 | 34 | 1011.5 |
| 20260901235917 | 24 | 215 | 1.6 | 8.0 | 0.00 | 0.00 | 0.00 | 32 | 1011.4 |
| 20260901235715 | 24 | 214 | 1.6 | 8.0 | 0.00 | 0.00 | 0.00 | 32 | 1011.4 |
| 20260901235510 | 24 | 214 | 1.6 | 8.0 | 0.00 | 0.00 | 0.00 | 32 | 1011.4 |